Погода в Митине

Россия / Костромская область     58°08′45″N   42°09′36″E
темп.,
°C
ветер,
м/с
пор.,
м/с
влажн.,
%
обл.,
%
осадки,
мм/ч
давл.,
гПа
погр.,
м
24 мая, вт
вт2400:00−2сз399889 0.4 1001400
03:00−1сз3693100 0.4 1002622
06:00−1сз3692100 0.0 1003519
09:00+1ссз3580100 0.1 1004949
12:00+2ссз3577100 0.1 1006922
15:00+4ссз3570100 0.3 10071096
18:00+4ссз368699 0.7 1008856
21:00+1сз279559 0.8 1010161
25 мая, ср
ср2500:00−1сз289831 0.0 1011175
03:00−2сз279997 0.0 1012184
06:00+1сз3693100 0.0 1012448
09:00+2зсз3998100 0.3 1012439
12:00+5сз4892100 0.1 1012715
15:00+7сз5984100 0.4 1011971
18:00+7сз498497 0.4 1011895
21:00+4сз2595100 0.6 1011125
26 мая, чт
чт2600:00+3сз249899 0.0 1011103
03:00+2з2299100 0.0 101026
06:00+3зюз1393100 0.0 1009154
09:00+7зюз2478100 0.2 1008740
12:00+9зюз3468100 0.9 10061272
15:00+10зсз346283 1.9 10061363
18:00+10зсз23625 0.3 10051214
21:00+4вюв22925 0.3 100425
27 мая, пт
пт2700:00+2вюв259744 0.0 100390
03:00+2вюв389890 0.0 1000162
06:00+6вюв3992100 0.0 998287
09:00+9вюв3688100 0.1 997466
12:00+8юв3798100 2.3 997367
15:00+10юв2392100 3.1 997449
18:00+11юв2492100 0.2 998406
21:00+7зюз279796 0.4 999187
28 мая, сб
сб2800:00+7ююз269798 0.0 999169
03:00+7ююз389998 0.1 999229
06:00+8ю379647 0.1 999276
09:00+12ю3678100 0.9 997734
12:00+11ю5788100 2.2 996799
15:00+8ю4997100 3.5 996927
18:00+10зюз512885 0.4 9971192
21:00+7юз412935 0.5 999680